Voltar ao catálogo

CHANG'E 4

AtivoCiênciaHCO
NORAD 43845·PAYLOAD·🇨🇳 China

Lançado Dec 7, 2018 de Xichang Satellite Launch Center

Loading…

TLE

ObsoletoSource: Space-Track

Época: Dec 7, 2018, 18:23 UTC

1 43845U 18103A   18341.76644677 +.00002075 -65600-5 +00000-0 0  9998
2 43845 028.8798 349.8100 0010000 102.8623 000.0000 16.01555694000008

Acompanhe CHANG'E 4 em tempo real com AllMySat

Download on the App Store